Regional Weather Roundup
Issued by NWS Grand Forks, ND

Home | Current Version | Previous Version | Graphics & Text | Print | Product List | Glossary On
Versions: 1 2 3 4 5 6 7 8 9 10 11 12 13 14 15 16 17 18 19 20 21 22 23 24 25 26 27 28 29 30 31 32 33 34 35 36 37 38 39 40 41 42 43 44 45 46 47 48 49 50
203
ASUS43 KFGF 260831
RWRFGF
PRAIRIE TO PINES  WEATHER ROUNDUP
NATIONAL WEATHER SERVICE EASTERN NORTH DAKOTA/GRAND FORKS ND
300 AM CDT FRI MAY 26 2017

 **SATELLITE DATA USED TO AUGMENT SKY COVER AT AUTOMATED STATIONS**
 *****  WEATHER ACROSS EASTERN NORTH DAKOTA  *****

CITY           SKY/WX    TMP DP  RH WIND       PRES   REMARKS
GRAND FORKS    FAIR      48  47  96 SW6       29.57R
GRAND FRKS AFB FAIR      51  46  84 SW7       29.57R
DEVILS LAKE    FAIR      53  45  74 SW10      29.59R
FARGO          FAIR      55  53  93 SW6       29.59R
WAHPETON ARPT  FAIR      52  48  87 S7        29.62R
$$

 ***** WEATHER ACROSS CENTRAL AND WESTERN NORTH DAKOTA  *****

CITY           SKY/WX    TMP DP  RH WIND       PRES   REMARKS
BISMARCK       FAIR      51  44  77 SW7       29.67R
MINOT          FAIR      53  44  71 SW13      29.59R
JAMESTOWN      FAIR      50  44  80 W5        29.62R
MINOT AFB      FAIR      51  44  79 W16       29.57R
GARRISON         N/A     50  43  77 W15       29.63R
WILLISTON      CLOUDY    51  42  71 W12       29.66R
DICKINSON      CLOUDY    49  38  65 W14       29.69S
HETTINGER      FAIR      43  39  86 W12       29.75R
$$

 *****  OTHER AIRPORT OBSERVATIONS IN OUR AREA  *****

CITY           SKY/WX    TMP DP  RH WIND       PRES   REMARKS
WALHALLA       NOT AVBL
GRAFTON AIRPOR FAIR      48  48 100 SW7       29.58S
VALLEY CITY AR FAIR      50  50 100 W10       29.63S
CANDO          NOT AVBL
CAVALIER APRT  PTSUNNY   54  46  76 SW8       29.55R
GWINNER        SUNNY     54  46  76 MISG      29.62S
SHEYENNE NWR     N/A     50  49  95 W5        29.95S
ROLLA          FAIR      45  45 100 SW12      29.56S
 ***** THE ABOVE OBSERVATIONS ARE NON NWS ARE NOT QUALITY
       CONTROLLED AND MAY MIS-REPORT RAIN FOR SNOW...
$$

  *****  WEATHER ACROSS NORTHERN MINNESOTA  *****

CITY           SKY/WX    TMP DP  RH WIND       PRES   REMARKS
FLAG ISLAND    FAIR      57  52  82 S17       29.57F
WARROAD        FAIR      59  52  77 S10G16    29.58S
ROSEAU         MOCLDY    59  52  77 S14       29.56S
HALLOCK        FAIR      54  48  82 S9        29.56R
THF RVR FALLS  FAIR      54  50  86 S8        29.59S
BAUDETTE       FAIR      59  50  72 SE10      29.61S
WASKISH        MOCLDY    57  52  82 SE9       29.63R
CROOKSTON      FAIR      52  48  87 S5        29.59S
STEPHEN NDAWN    N/A     54  48  82 S7          N/A
GREENBUSH NDAW   N/A     54  50  87 S8          N/A
$$
  *****  WEATHER ACROSS CENTRAL AND WEST MINNESOTA  *****

CITY           SKY/WX    TMP DP  RH WIND       PRES   REMARKS
FOSSTON        FAIR      55  48  76 S9        29.61R
BEMIDJI        FAIR      55  51  86 SE7       29.63S
PARK RAPIDS    LGT RAIN  57  50  77 SE8       29.63F
ELBOW LAKE     FAIR      53  51  95 E9        29.63S
WADENA         FAIR      54  50  87 S6        29.63S
DETROIT LAKES  FAIR      54  52  94 S7        29.63S
MOORHEAD       FAIR      57  52  82 S10       29.61R
FERGUS FALLS   FAIR      54  52  94 S7        29.61S
MORRIS MN      FAIR      54  52  94 SE8       29.63R
STAPLES        FAIR      55  50  82 SE6       29.64F
$$
  *****  WEATHER ELSEWHERE ACROSS MINNESOTA  *****

CITY           SKY/WX    TMP DP  RH WIND       PRES   REMARKS
DULUTH         LGT RAIN  49  45  86 E6        29.74S
INTRNTL FALLS  LGT RAIN  54  50  86 SE10      29.67F
ELY            CLOUDY    54  45  71 CALM      29.73R
CLOQUET        CLOUDY    46  45  93 E3        29.73F
WHEATON        FAIR      54  50  87 S5        29.64S
BRAINERD       CLOUDY    56  53  90 SE5       29.66F
HIBBING        LGT RAIN  49  48  97 SE5       29.72S FOG
ALEXANDRIA     FAIR      54  51  90 S6        29.65S
SAINT CLOUD    CLOUDY    59  54  83 SE6       29.67S
MINNEAPOLIS    CLOUDY    62  53  72 SE8       29.70R
$$

  *****  WEATHER ACROSS SOUTH DAKOTA  *****

CITY           SKY/WX    TMP DP  RH WIND       PRES   REMARKS
SIOUX FALLS    FAIR      52  51  97 CALM      29.65S
BROOKINGS      FAIR      53  50  89 CALM      29.67R
WATERTOWN      FAIR      50  49  96 CALM      29.66R
HURON          FAIR      52  46  80 NW8       29.69R
SISSETON         N/A     55  52  89 W5        29.61R
ABERDEEN       MOCLDY    55  42  61 W12       29.66R
MITCHELL       FAIR      56  46  69 NW9       29.69R
PIERRE         FAIR      54  42  64 W10       29.73S
MOBRIDGE       FAIR      49  42  77 NW6       29.69R
RAPID CITY     FAIR      43  34  70 W3        29.84R
$$

  *****  SOME WEATHER IN NEARBY STATES *****

CITY           SKY/WX    TMP DP  RH WIND       PRES   REMARKS
GLASGOW MT     FAIR      42  36  79 W13       29.75S
GREAT FALLS MT FAIR      41  37  86 NW6       29.92R
CHEYENNE WY    FAIR      41  36  82 NW5       29.96R
SCOTTSBLUFF NE FAIR      49  36  61 NW9       29.90R
OMAHA NE       CLOUDY    67  55  65 SE7       29.63F
DES MOINES IA  MOCLDY    62  52  69 E7        29.69F
DAVENPORT IA   FAIR      59  55  87 SE7       29.79R
CHICAGO IL     FAIR      53  49  86 CALM      29.80R
EAU CLAIRE WI  CLOUDY    59  54  83 S6        29.74F
LA CROSSE WI   MOCLDY    60  58  92 E7        29.76R
$$

  *****  SOME NATIONAL WEATHER *****

CITY           SKY/WX    TMP DP  RH WIND       PRES   REMARKS
LA GUARDIA NY  LGT RAIN  57  54  89 NW7       29.48R
RALEIGH NC     FAIR      60  54  80 SW8       29.81R
ATLANTA GA     FAIR      57  51  80 W5        29.96R
NEW ORLEANS LA FAIR      71  62  73 S10       29.91F
OKLAHOMA CITY  FAIR      75  62  64 S15       29.54S
ALBUQUERQUE NM FAIR      68   9  10 S5        29.96R
SALT LAKE CITY FAIR      53  39  59 CALM      29.71F
LOS ANGELES CA CLOUDY    61  54  77 W8        29.92S
BOISE ID       CLOUDY    52  42  69 W3        29.80R
SEATTLE WA     FAIR      57  49  74 N9        29.91R
$$

*** WEATHER ACROSS MANITOBA...SASKATCHEWAN AND ONTARIO ***
                ***ONTARIO***

CITY           SKY/WX    TMP DP  RH WIND       PRES   REMARKS
GERALDTON      CLEAR     45  43  93 NW3       29.79R
THUNDER BAY    PTCLDY    41  41 100 NW5       29.78R
SIOUX LOOKOUT  CLOUDY    55  45  67 S6        29.69S
TORONTO        DRIZZLE   55  54  94 N7        29.58R FOG
BIG TROUT LK   CLEAR     52  41  66 SE9       29.70F
PICKLE LAKE    NOT AVBL
DRYDEN         CLOUDY    55  48  76 S10       29.67S
KENORA         LGT RAIN  57  52  82 S14G22    29.61F
$$
                *** MANITOBA***

CITY           SKY/WX    TMP DP  RH WIND       PRES   REMARKS
BRANDON        CLEAR     48  41  76 W12       29.49R
DAUPHIN        PTCLDY    52  46  82 W14G20    29.41R
ISLAND LAKE    NOT AVBL
PILOT MOUND      N/A     45  41  87 SW6         N/A
THE PAS        LGT RAIN  48  46  93 NE6       29.37S
THOMPSON       LGT RAIN  52  45  76 NE5       29.53F
WINNIPEG       CLEAR     54  48  82 SW9       29.51R
LYNN LAKE      LGT RAIN  48  46  93 E9        29.54S
CHURCHILL      MOCLDY    34  34 100 NE14      29.67F WCI  24
GILLAM         CLOUDY    57  34  41 SE7       29.58S
$$
                ***SASKATCHEWAN***

CITY           SKY/WX    TMP DP  RH WIND       PRES   REMARKS
ESTEVAN        CLOUDY    50  46  87 W17G24    29.57R
KINDERSLEY     PTCLDY    43  39  87 W7        29.71S
LLOYDMINSTER   CLEAR     45  41  87 NW10      29.70S
PRINCE ALBERT  LGT RAIN  50  46  87 NW13G22   29.51R
REGINA         CLOUDY    48  45  87 W20G26    29.54R
YORKTON          N/A     50  46  87 SW9       29.42R
N. BATTLEFORD  PTCLDY    45  45 100 NW14      29.67R
LA RONGE       LGT RAIN  50  48  93 NW6       29.50S
SASKATOON      CLOUDY    48  45  87 NW18G25   29.59R
SWIFT CURRENT  CLOUDY    45  41  87 NW18G24   29.68R
$$
NOTE: THESE ARE AUTOMATED STATIONS WITH LIMITED QUALITY CONTROL
      "FAIR" INDICATES FEW OR NO CLOUDS BELOW 12,000 FEET WITH NO
      SIGNIFICANT WEATHER AND/OR OBSTRUCTIONS TO VISIBILITY.
      SKY/WX - SKY CONDITION AND SIGNIFICANT WEATHER.
      TMP - AIR TEMPERATURE.    DP   - DEWPOINT TEMPERATURE.
      RH  - RELATIVE HUMIDITY.  PRES - PRESSURE.
      HX  - HEAT INDEX.         WCI  - WIND CHILL INDEX.
$




USA.gov is the U.S. government's official web portal to all federal, state and local government web resources and services.